Home   Weather   Riesa   Past weeks
Flag for Germany

Past Weather in Riesa, Saxony, Germany — Yesterday and Last 2 Weeks

Now
52 °F

Clear.


Feels Like: 50 °F
Forecast: 70 / 52 °F
Wind: 6 mph from Southwest

Location: Dresden-Klotzsche

Current Time: Oct 19, 2019 at 2:45:57 am

Latest Report: Oct 19, 2019 at 2:20 am


Visibility: 10 mi

Pressure: 29.92 "Hg

Humidity: 88%

Dew Point: 48 °F

Location of RiesaLocation

Past Weather in Riesa — Graph

°F

Riesa Temperature Yesterday

Maximum temperature yesterday: 66 °F (at 12:20 pm)
Minimum temperature yesterday: 52 °F (at 12:20 am)
Average temperature yesterday: 58 °F

High & Low Weather Summary for the Past Weeks

 TemperatureHumidityPressure
High77 °F (Oct 13, 2:20 pm)100% (Oct 5, 2:50 am)30.15 "Hg (Oct 5, 2:50 am)
Low34 °F (Oct 7, 4:50 am)41% (Oct 7, 4:50 pm)29.59 "Hg (Oct 5, 4:50 am)
Average54 °F76%29.91 "Hg
* Reported Oct 4 1:20 am — Oct 19 1:50 am, Riesa. Weather by CustomWeather, © 2019

Note: Actual official high and low records may vary slightly from our data, if they occured in-between our weather recording intervals... More about our weather records

Advertising

Riesa Weather History for the Previous 24 Hours

Scroll right to see more
 ConditionsComfort  
Time TempWeatherWind HumidityBarometerVisibility
1:50 am
Sat, Oct 19
54 °FClear.6 mph82%29.89 "Hg10 mi
1:20 am54 °FClear.6 mph82%29.89 "Hg10 mi
12:50 am54 °FClear.7 mph82%29.89 "Hg10 mi
12:20 am54 °FClear.6 mph82%29.89 "Hg10 mi
11:50 pm
Fri, Oct 18
55 °FClear.8 mph77%29.89 "Hg10 mi
11:20 pm55 °FClear.10 mph82%29.89 "Hg10 mi
10:50 pm55 °FClear.9 mph82%29.89 "Hg10 mi
10:20 pm57 °FClear.10 mph77%29.86 "Hg10 mi
9:50 pm57 °FClear.9 mph77%29.86 "Hg10 mi
9:20 pm59 °FClear.10 mph77%29.86 "Hg10 mi
8:50 pm59 °FClear.13 mph77%29.86 "Hg10 mi
8:20 pm59 °FClear.12 mph82%29.86 "Hg10 mi
7:50 pm59 °FPassing clouds.8 mph82%29.86 "HgN/A
7:20 pm61 °FSprinkles. Passing clouds.8 mph77%29.86 "HgN/A
6:50 pm61 °FSprinkles. Passing clouds.10 mph72%29.83 "HgN/A
6:20 pm61 °FClear.10 mph72%29.83 "Hg10 mi
5:50 pm63 °FSunny.10 mph68%29.83 "Hg10 mi
5:20 pm63 °FSunny.9 mph68%29.83 "Hg10 mi
4:50 pm63 °FSunny.12 mph68%29.83 "Hg10 mi
4:20 pm64 °FPassing clouds.13 mph64%29.83 "HgN/A
3:50 pm64 °FPassing clouds.14 mph64%29.83 "HgN/A
3:20 pm66 °FPassing clouds.12 mph64%29.83 "HgN/A
2:50 pm66 °FPassing clouds.9 mph64%29.83 "HgN/A
2:20 pm64 °FPassing clouds.10 mph68%29.83 "HgN/A
1:50 pm66 °FScattered clouds.8 mph64%29.86 "HgN/A
1:20 pm64 °FPassing clouds.7 mph64%29.86 "HgN/A
12:50 pm64 °FPassing clouds.6 mph64%29.89 "HgN/A
12:20 pm66 °FPassing clouds.8 mph60%29.89 "HgN/A
11:50 am64 °FPassing clouds.7 mph64%29.89 "HgN/A
11:20 am63 °FPassing clouds.8 mph68%29.89 "HgN/A
10:20 am59 °FSunny.9 mph77%29.92 "Hg10 mi
9:50 am57 °FSunny.9 mph82%29.92 "Hg10 mi
9:20 am55 °FSunny.8 mph82%29.92 "Hg10 mi
8:50 am54 °FSunny.8 mph88%29.92 "Hg10 mi
8:20 am54 °FSunny.9 mph88%29.92 "Hg10 mi
7:50 am54 °FPassing clouds.9 mph88%29.92 "HgN/A
7:20 am54 °FPassing clouds.8 mph94%29.92 "HgN/A
6:50 am54 °FClear.7 mph88%29.92 "Hg10 mi
6:20 am54 °FLight rain. Clear.8 mph88%29.92 "HgN/A
5:50 am54 °FLight rain. Clear.9 mph88%29.92 "HgN/A
5:20 am55 °FLight rain. Clear.10 mph82%29.92 "HgN/A
4:50 am55 °FLight rain. Clear.9 mph77%29.92 "HgN/A
4:20 am55 °FLight rain. Clear.10 mph77%29.92 "HgN/A
3:50 am55 °FLight rain. Clear.10 mph77%29.92 "HgN/A
3:20 am55 °FLight rain. Clear.9 mph77%29.92 "HgN/A
2:50 am55 °FLight rain. Clear.10 mph72%29.92 "HgN/A
2:20 am54 °FClear.9 mph77%29.92 "Hg10 mi
Weather by CustomWeather, © 2019

See weather overview